VKG22E LTFG-ENGM

Flight info

Callsign VKG22E
Flight time N/A
Altitude 33000
Route EVKOR T336 AYT UQ23 OSVEL UL619 MAKOL DCT ANAVU DCT KENIN DCT LENOV DCT RUMAR DCT SABAK DCT LUNIP
Aircraft A21N/M-SDE2E3FGHIRWXY/LB1

Departure

Time 2026-05-04 14:33
Airport Gazipaşa-Alanya Airport (LTFG)

Arrival

Time N/A
Airport Oslo-Gardermoen International Airport (ENGM)
Time Latitude Longitude Altitude Speed Heading
2026-05-04 13:54 36.29806 32.30384 133 ft 0 kts 172°
2026-05-04 14:24 36.29819 32.30382 132 ft 4 kts 174°
2026-05-04 14:24 36.29845 32.30379 132 ft 3 kts 176°
2026-05-04 14:24 36.29849 32.30379 132 ft 0 kts 175°
2026-05-04 14:28 36.29842 32.30380 132 ft 4 kts 176°
2026-05-04 14:28 36.29828 32.30364 132 ft 5 kts 250°
2026-05-04 14:28 36.29828 32.30318 132 ft 6 kts 274°
2026-05-04 14:28 36.29831 32.30263 132 ft 7 kts 274°
2026-05-04 14:29 36.29869 32.30155 133 ft 9 kts 351°
2026-05-04 14:29 36.29933 32.30223 133 ft 6 kts 81°
2026-05-04 14:30 36.29945 32.30274 133 ft 7 kts 73°
2026-05-04 14:30 36.29961 32.30344 133 ft 15 kts 79°
2026-05-04 14:30 36.29994 32.30634 133 ft 18 kts 78°
2026-05-04 14:31 36.30015 32.30786 133 ft 18 kts 81°
2026-05-04 14:31 36.30064 32.30998 135 ft 8 kts 61°
2026-05-04 14:32 36.30044 32.31037 135 ft 0 kts 264°
2026-05-04 14:33 36.30032 32.30932 134 ft 48 kts 261°
2026-05-04 14:33 36.29942 32.30167 133 ft 128 kts 262°
2026-05-04 14:33 36.29777 32.28850 365 ft 166 kts 263°
2026-05-04 14:33 36.29589 32.27415 1113 ft 170 kts 264°
2026-05-04 14:34 36.29565 32.25956 1894 ft 176 kts 287°
2026-05-04 14:34 36.30145 32.24514 2192 ft 206 kts 304°
2026-05-04 14:34 36.30958 32.22961 2647 ft 223 kts 300°
2026-05-04 14:34 36.31766 32.21225 3086 ft 241 kts 299°
2026-05-04 14:35 36.32603 32.19377 3711 ft 249 kts 299°
2026-05-04 14:35 36.33460 32.17492 4450 ft 253 kts 299°
2026-05-04 14:35 36.34331 32.15586 5209 ft 255 kts 299°
2026-05-04 14:35 36.35200 32.13681 5974 ft 258 kts 299°
2026-05-04 14:36 36.36083 32.11735 6682 ft 261 kts 298°
2026-05-04 14:36 36.36981 32.09761 7389 ft 264 kts 299°
2026-05-04 14:36 36.37889 32.07768 8114 ft 266 kts 299°
2026-05-04 14:36 36.38807 32.05756 8869 ft 269 kts 299°
2026-05-04 14:37 36.39732 32.03727 9611 ft 272 kts 299°
2026-05-04 14:37 36.40644 32.01652 10213 ft 279 kts 294°
2026-05-04 14:37 36.41425 31.99365 10514 ft 297 kts 293°
2026-05-04 14:37 36.42295 31.96949 10761 ft 316 kts 295°
2026-05-04 14:38 36.43385 31.94491 10997 ft 334 kts 303°
2026-05-04 14:38 36.44705 31.92024 11211 ft 351 kts 303°
2026-05-04 14:38 36.46040 31.89404 11417 ft 366 kts 301°
2026-05-04 14:38 36.47349 31.86681 11693 ft 376 kts 300°
2026-05-04 14:39 36.48668 31.83849 12104 ft 382 kts 300°
2026-05-04 14:39 36.49980 31.80970 12571 ft 384 kts 299°
2026-05-04 14:39 36.51293 31.78063 13123 ft 386 kts 300°
2026-05-04 14:40 36.53944 31.72206 14131 ft 389 kts 300°
2026-05-04 14:40 36.55262 31.69268 14664 ft 389 kts 299°
2026-05-04 14:40 36.56580 31.66324 15138 ft 391 kts 299°
2026-05-04 14:40 36.57910 31.63362 15581 ft 393 kts 299°
2026-05-04 14:41 36.59196 31.60352 15997 ft 394 kts 297°
2026-05-04 14:41 36.60447 31.57314 16359 ft 395 kts 297°
2026-05-04 14:41 36.62934 31.51259 17053 ft 396 kts 297°
2026-05-04 14:42 36.65437 31.45126 17740 ft 399 kts 297°
2026-05-04 14:42 36.66694 31.42033 18075 ft 400 kts 297°
2026-05-04 14:42 36.67954 31.38943 18365 ft 401 kts 297°
2026-05-04 14:43 36.69223 31.35836 18625 ft 403 kts 297°
2026-05-04 14:43 36.70497 31.32712 18886 ft 405 kts 297°
2026-05-04 14:43 36.71784 31.29565 19166 ft 407 kts 298°
2026-05-04 14:43 36.73084 31.26425 19453 ft 409 kts 298°
2026-05-04 14:44 36.74389 31.23263 19733 ft 411 kts 298°
2026-05-04 14:44 36.75696 31.20070 20003 ft 414 kts 298°
2026-05-04 14:44 36.76983 31.16903 20291 ft 416 kts 298°
2026-05-04 14:44 36.78290 31.13670 20498 ft 420 kts 298°
2026-05-04 14:45 36.79610 31.10406 20758 ft 423 kts 298°
2026-05-04 14:45 36.80943 31.07119 21098 ft 425 kts 298°
2026-05-04 14:45 36.82279 31.03819 21438 ft 428 kts 298°
2026-05-04 14:45 36.83623 31.00491 21767 ft 430 kts 298°
2026-05-04 14:46 36.84533 30.98234 22001 ft 432 kts 298°
2026-05-04 14:46 36.85885 30.94877 22251 ft 434 kts 298°
2026-05-04 14:46 36.87235 30.91545 22511 ft 437 kts 299°
2026-05-04 14:46 36.88863 30.88338 22767 ft 439 kts 308°
2026-05-04 14:47 36.90957 30.85554 23021 ft 440 kts 319°
2026-05-04 14:47 36.93461 30.83337 23273 ft 443 kts 329°
2026-05-04 14:47 36.96285 30.81782 23556 ft 446 kts 340°
2026-05-04 14:47 36.99325 30.80947 23898 ft 448 kts 351°
2026-05-04 14:48 37.02445 30.80879 24258 ft 450 kts
2026-05-04 14:48 37.05551 30.81295 24613 ft 449 kts
2026-05-04 14:48 37.08653 30.81768 24988 ft 447 kts
2026-05-04 14:48 37.11735 30.82229 25345 ft 446 kts
2026-05-04 14:49 37.14812 30.82675 25698 ft 444 kts
2026-05-04 14:49 37.17877 30.83109 26051 ft 443 kts
2026-05-04 14:49 37.20934 30.83540 26406 ft 442 kts
2026-05-04 14:49 37.23980 30.83971 26766 ft 440 kts
2026-05-04 14:50 37.27021 30.84402 27126 ft 438 kts
2026-05-04 14:50 37.30043 30.84833 27510 ft 435 kts
2026-05-04 14:50 37.33006 30.85257 27878 ft 434 kts
2026-05-04 14:50 37.36006 30.85684 28206 ft 433 kts
2026-05-04 14:51 37.39004 30.86111 28534 ft 432 kts
2026-05-04 14:51 37.41987 30.86536 28882 ft 431 kts
2026-05-04 14:51 37.44958 30.86961 29208 ft 430 kts
2026-05-04 14:51 37.47929 30.87385 29526 ft 429 kts
2026-05-04 14:52 37.50887 30.87809 29878 ft 427 kts
2026-05-04 14:52 37.53829 30.88234 30170 ft 426 kts
2026-05-04 14:52 37.56770 30.88652 30404 ft 425 kts
2026-05-04 14:52 37.59712 30.89071 30622 ft 425 kts
2026-05-04 14:53 37.62652 30.89494 30830 ft 425 kts
2026-05-04 14:53 37.65589 30.89922 31047 ft 425 kts
2026-05-04 14:53 37.68534 30.90342 31262 ft 426 kts
2026-05-04 14:53 37.71481 30.90759 31486 ft 426 kts
2026-05-04 14:54 37.74432 30.91177 31693 ft 427 kts
2026-05-04 14:54 37.77385 30.91590 31913 ft 427 kts
2026-05-04 14:54 37.80341 30.92005 32148 ft 427 kts
2026-05-04 14:54 37.83297 30.92430 32359 ft 428 kts
2026-05-04 14:55 37.86256 30.92863 32580 ft 428 kts
2026-05-04 14:55 37.89173 30.93286 32834 ft 427 kts
2026-05-04 14:55 37.92122 30.93708 32984 ft 426 kts
2026-05-04 14:55 37.95065 30.94128 32984 ft 425 kts
2026-05-04 14:56 38.00941 30.94976 32959 ft 425 kts
2026-05-04 14:56 38.06827 30.95829 32970 ft 425 kts
2026-05-04 14:57 38.12693 30.96678 32963 ft 424 kts
2026-05-04 14:57 38.18558 30.97537 32960 ft 424 kts
2026-05-04 14:58 38.24425 30.98392 32967 ft 424 kts
2026-05-04 14:58 38.30271 30.99243 32973 ft 421 kts
2026-05-04 14:59 38.36061 31.00088 32969 ft 421 kts
2026-05-04 15:00 38.44807 31.01357 32975 ft 421 kts
2026-05-04 15:00 38.50581 31.00735 32988 ft 418 kts 343°
2026-05-04 15:01 38.58738 30.96801 32985 ft 417 kts 339°
2026-05-04 15:01 38.64173 30.94164 32983 ft 418 kts 340°
2026-05-04 15:02 38.69585 30.91564 32996 ft 418 kts 340°
2026-05-04 15:02 38.75020 30.88931 32995 ft 418 kts 340°
2026-05-04 15:03 38.80452 30.86314 32998 ft 417 kts 340°
2026-05-04 15:03 38.85891 30.83708 32997 ft 417 kts 340°
2026-05-04 15:04 38.91328 30.81038 33000 ft 417 kts 340°
2026-05-04 15:04 38.96743 30.78389 33005 ft 417 kts 340°
2026-05-04 15:05 39.02129 30.75768 32999 ft 417 kts 340°
2026-05-04 15:05 39.07552 30.73110 33012 ft 416 kts 340°
2026-05-04 15:06 39.12978 30.70488 33007 ft 417 kts 340°
2026-05-04 15:07 39.21111 30.66497 33011 ft 417 kts 340°
2026-05-04 15:07 39.26547 30.63878 33014 ft 417 kts 340°
2026-05-04 15:08 39.31983 30.61255 33017 ft 417 kts 340°
2026-05-04 15:08 39.37368 30.58604 33017 ft 417 kts 340°
2026-05-04 15:09 39.42790 30.55934 33018 ft 417 kts 341°
2026-05-04 15:09 39.48212 30.53261 33018 ft 417 kts 340°
2026-05-04 15:10 39.56302 30.49082 33019 ft 417 kts 338°
2026-05-04 15:11 39.64255 30.44455 33016 ft 418 kts 338°
2026-05-04 15:11 39.69532 30.41366 33000 ft 418 kts 338°
2026-05-04 15:12 39.74842 30.38261 32979 ft 419 kts 338°
2026-05-04 15:12 39.80164 30.35157 32995 ft 419 kts 338°
2026-05-04 15:13 39.85493 30.32049 32991 ft 421 kts 339°
2026-05-04 15:13 39.90852 30.28892 33005 ft 422 kts 339°
2026-05-04 15:14 39.96217 30.25739 33014 ft 422 kts 339°
2026-05-04 15:14 40.01579 30.22603 33021 ft 422 kts 339°
2026-05-04 15:15 40.06937 30.19440 33024 ft 422 kts 339°
2026-05-04 15:15 40.12257 30.16296 33028 ft 422 kts 339°
2026-05-04 15:16 40.20279 30.11537 33033 ft 422 kts 339°
2026-05-04 15:17 40.28337 30.06770 33024 ft 424 kts 339°
2026-05-04 15:17 40.36420 30.01959 33032 ft 426 kts 340°
2026-05-04 15:18 40.41818 29.98734 33034 ft 426 kts 340°
2026-05-04 15:19 40.49913 29.93884 33039 ft 426 kts 340°
2026-05-04 15:19 40.58015 29.89096 33034 ft 429 kts 340°
2026-05-04 15:20 40.63454 29.85856 33037 ft 429 kts 340°
2026-05-04 15:20 40.68885 29.82592 33005 ft 429 kts 340°
2026-05-04 15:21 40.74283 29.79336 33034 ft 426 kts 340°
2026-05-04 15:22 40.82364 29.74459 33040 ft 426 kts 340°
2026-05-04 15:22 40.90441 29.69567 33040 ft 426 kts 340°
2026-05-04 15:23 40.95829 29.66297 33048 ft 426 kts 340°
2026-05-04 15:23 41.01174 29.63049 33039 ft 425 kts 340°
2026-05-04 15:24 41.11897 29.56503 33033 ft 423 kts 340°
2026-05-04 15:25 41.17254 29.53229 33026 ft 423 kts 340°
2026-05-04 15:26 41.25527 29.49446 33023 ft 418 kts 349°
2026-05-04 15:26 41.33911 29.46291 32996 ft 419 kts 348°
2026-05-04 15:27 41.42336 29.43085 33014 ft 419 kts 348°
2026-05-04 15:28 41.50751 29.39881 33003 ft 419 kts 349°
2026-05-04 15:29 41.59183 29.36657 32997 ft 421 kts 349°
2026-05-04 15:30 41.78877 29.29090 33006 ft 421 kts 349°
2026-05-04 15:31 41.87355 29.25819 32994 ft 423 kts 349°
2026-05-04 15:32 42.01483 29.20345 33007 ft 423 kts 349°
2026-05-04 15:34 42.15650 29.14730 32999 ft 429 kts 343°
2026-05-04 15:34 42.23262 29.08016 33012 ft 441 kts 328°
2026-05-04 15:35 42.30563 29.00474 32991 ft 442 kts 328°
2026-05-04 15:36 42.37921 28.92918 33012 ft 443 kts 328°
2026-05-04 15:36 42.42685 28.88013 33012 ft 443 kts 327°
2026-05-04 15:37 42.47592 28.82946 33022 ft 443 kts 327°
2026-05-04 15:37 42.52494 28.77877 33018 ft 443 kts 327°
2026-05-04 15:38 42.56574 28.73661 33021 ft 443 kts 327°
2026-05-04 15:38 42.61475 28.68580 33030 ft 443 kts 327°
2026-05-04 15:39 42.66377 28.63480 33011 ft 443 kts 327°
2026-05-04 15:40 42.73695 28.55859 33024 ft 443 kts 327°
2026-05-04 15:40 42.78587 28.50740 33029 ft 444 kts 327°
2026-05-04 15:41 42.83485 28.45620 33031 ft 444 kts 327°
2026-05-04 15:41 42.88378 28.40486 33018 ft 444 kts 326°
2026-05-04 15:42 42.93273 28.35340 33028 ft 443 kts 326°
2026-05-04 15:42 42.98153 28.30203 33034 ft 443 kts 326°
2026-05-04 15:43 43.03031 28.25048 33033 ft 443 kts 326°
2026-05-04 15:43 43.07927 28.19875 33033 ft 446 kts 326°
2026-05-04 15:44 43.12808 28.14699 33036 ft 446 kts 326°
2026-05-04 15:44 43.17743 28.09459 33031 ft 446 kts 325°
2026-05-04 15:45 43.22615 28.04283 33028 ft 446 kts 325°
2026-05-04 15:45 43.27517 27.99049 33021 ft 446 kts 325°
2026-05-04 15:46 43.32417 27.93809 33023 ft 446 kts 325°
2026-05-04 15:46 43.37311 27.88540 33026 ft 446 kts 324°
2026-05-04 15:47 43.42194 27.83264 33028 ft 446 kts 324°
2026-05-04 15:47 43.47067 27.78025 33029 ft 443 kts 324°
2026-05-04 15:48 43.51891 27.72835 33031 ft 442 kts 324°
2026-05-04 15:48 43.59155 27.64977 33036 ft 442 kts 324°
2026-05-04 15:49 43.64016 27.59735 33026 ft 445 kts 324°
2026-05-04 15:49 43.68885 27.54428 33036 ft 446 kts 324°
2026-05-04 15:50 43.73756 27.49127 33037 ft 446 kts 324°
2026-05-04 15:50 43.78625 27.43823 33039 ft 446 kts 324°
2026-05-04 15:51 43.83520 27.38478 33033 ft 450 kts 323°
2026-05-04 15:51 43.88432 27.33092 33038 ft 450 kts 323°
2026-05-04 15:52 43.93344 27.27700 33038 ft 450 kts 323°
2026-05-04 15:52 43.98255 27.22302 33040 ft 450 kts 323°
2026-05-04 15:53 44.03162 27.16899 33039 ft 449 kts 322°
2026-05-04 15:53 44.08048 27.11520 33041 ft 446 kts 322°
2026-05-04 15:54 44.12910 27.06154 33044 ft 447 kts 322°
2026-05-04 15:54 44.17793 27.00764 33040 ft 447 kts 322°
2026-05-04 15:55 44.22660 26.95421 33040 ft 448 kts 322°
2026-05-04 15:55 44.27544 26.90056 33042 ft 447 kts 322°
2026-05-04 15:56 44.32437 26.84659 33043 ft 447 kts 322°
2026-05-04 15:56 44.37310 26.79277 33047 ft 446 kts 322°
2026-05-04 15:57 44.42168 26.73886 33040 ft 445 kts 322°
2026-05-04 15:57 44.46994 26.68528 33036 ft 446 kts 322°
2026-05-04 15:58 44.51858 26.63117 33046 ft 446 kts 322°
2026-05-04 15:58 44.56713 26.57704 33044 ft 446 kts 322°
2026-05-04 15:59 44.61567 26.52278 33044 ft 445 kts 322°
2026-05-04 15:59 44.66396 26.46869 33036 ft 444 kts 322°
2026-05-04 16:00 44.71220 26.41451 33044 ft 444 kts 321°
2026-05-04 16:00 44.76038 26.36033 33044 ft 444 kts 321°
2026-05-04 16:01 44.80859 26.30599 33038 ft 444 kts 321°
2026-05-04 16:01 44.85676 26.25151 33042 ft 444 kts 321°
2026-05-04 16:02 44.90491 26.19700 33036 ft 444 kts 321°
2026-05-04 16:03 44.97712 26.11496 33040 ft 444 kts 321°
2026-05-04 16:03 45.02514 26.06022 33048 ft 443 kts 320°
2026-05-04 16:04 45.07312 26.00548 33039 ft 442 kts 320°
2026-05-04 16:04 45.14468 25.92359 33052 ft 442 kts 320°
2026-05-04 16:05 45.19243 25.86875 33052 ft 442 kts 320°
2026-05-04 16:06 45.26390 25.78655 33068 ft 438 kts 319°
2026-05-04 16:07 45.35797 25.67785 33068 ft 438 kts 319°
2026-05-04 16:08 45.45279 25.56780 33060 ft 438 kts 319°
2026-05-04 16:09 45.57132 25.42959 33051 ft 443 kts 319°
2026-05-04 16:10 45.66667 25.31776 33055 ft 443 kts 320°
2026-05-04 16:11 45.76194 25.20550 33043 ft 444 kts 320°
2026-05-04 16:12 45.89659 25.04611 33042 ft 443 kts 321°
2026-05-04 16:13 45.99150 24.93305 33042 ft 444 kts 321°
2026-05-04 16:14 46.08652 24.81937 33034 ft 444 kts 321°
2026-05-04 16:16 46.20471 24.67725 33026 ft 443 kts 321°
2026-05-04 16:17 46.32294 24.53422 33032 ft 443 kts 321°
2026-05-04 16:18 46.41740 24.41931 33024 ft 443 kts 321°
2026-05-04 16:19 46.53511 24.27535 33034 ft 443 kts 321°
2026-05-04 16:20 46.65235 24.13116 33034 ft 442 kts 321°
2026-05-04 16:22 46.76949 23.98621 33048 ft 441 kts 321°
2026-05-04 16:23 46.90978 23.81168 33051 ft 441 kts 321°
2026-05-04 16:25 47.04176 23.64619 33060 ft 441 kts 321°
2026-05-04 16:26 47.20427 23.44100 33067 ft 441 kts 321°
2026-05-04 16:28 47.32043 23.29324 33069 ft 440 kts 321°
2026-05-04 16:29 47.48181 23.08642 33053 ft 439 kts 321°
2026-05-04 16:31 47.59686 22.93792 33057 ft 439 kts 321°
2026-05-04 16:32 47.73467 22.75876 33056 ft 439 kts 320°
2026-05-04 16:33 47.78317 22.70544 33048 ft 436 kts 333°
2026-05-04 16:33 47.83680 22.66327 33063 ft 436 kts 333°
2026-05-04 16:34 47.91700 22.59922 33066 ft 436 kts 333°
2026-05-04 16:35 48.07681 22.46966 33061 ft 435 kts 333°
2026-05-04 16:36 48.15624 22.40501 33064 ft 435 kts 333°
2026-05-04 16:37 48.23606 22.33971 33046 ft 435 kts 332°
2026-05-04 16:38 48.34205 22.25250 33055 ft 434 kts 332°
2026-05-04 16:39 48.47416 22.14364 33049 ft 434 kts 332°
2026-05-04 16:40 48.57990 22.05599 33048 ft 433 kts 332°
2026-05-04 16:41 48.70197 21.95418 33047 ft 433 kts 332°
2026-05-04 16:43 48.83375 21.84360 33047 ft 433 kts 332°
2026-05-04 16:43 48.91287 21.77695 33038 ft 433 kts 332°
2026-05-04 16:45 49.07064 21.64324 33027 ft 433 kts 332°
2026-05-04 16:46 49.20267 21.53059 33027 ft 435 kts 331°
2026-05-04 16:47 49.30799 21.44031 33022 ft 435 kts 331°
2026-05-04 16:48 49.41376 21.34911 33019 ft 436 kts 330°
2026-05-04 16:49 49.51937 21.25758 33010 ft 436 kts 330°
2026-05-04 16:50 49.62467 21.16584 33003 ft 436 kts 330°
2026-05-04 16:51 49.70413 21.09637 32996 ft 438 kts 330°
2026-05-04 16:52 49.81025 21.00314 32980 ft 438 kts 330°
2026-05-04 16:53 49.88979 20.93292 32991 ft 438 kts 330°
2026-05-04 16:54 49.99560 20.83905 32988 ft 440 kts 329°
2026-05-04 16:55 50.15512 20.69679 32974 ft 440 kts 329°
2026-05-04 16:56 50.28807 20.57729 32959 ft 442 kts 328°
2026-05-04 16:57 50.36798 20.50507 32968 ft 442 kts 328°
2026-05-04 16:58 50.47449 20.40840 32982 ft 442 kts 328°
2026-05-04 17:00 50.63396 20.26280 32960 ft 442 kts 328°
2026-05-04 17:01 50.76639 20.14060 32971 ft 442 kts 327°
2026-05-04 17:02 50.87229 20.04267 32947 ft 438 kts 327°
2026-05-04 17:03 50.95120 19.96929 32944 ft 438 kts 327°
2026-05-04 17:03 51.02959 19.89596 32957 ft 438 kts 327°
2026-05-04 17:04 51.13452 19.79770 32951 ft 437 kts 327°
2026-05-04 17:05 51.23816 19.69982 32941 ft 437 kts 327°
2026-05-04 17:06 51.31681 19.62558 32931 ft 437 kts 327°
2026-05-04 17:07 51.38636 19.55942 32939 ft 437 kts 327°
2026-05-04 17:07 51.44699 19.50164 32937 ft 435 kts 326°
2026-05-04 17:08 51.52468 19.42743 32934 ft 433 kts 326°
2026-05-04 17:09 51.57627 19.37753 32934 ft 433 kts 326°
2026-05-04 17:09 51.62794 19.32761 32934 ft 433 kts 326°
2026-05-04 17:10 51.75702 19.20316 32934 ft 432 kts 326°
2026-05-04 17:11 51.80854 19.15310 32933 ft 432 kts 326°
2026-05-04 17:12 51.88574 19.07777 32931 ft 432 kts 326°
2026-05-04 17:13 52.01385 18.95123 32918 ft 432 kts 325°
2026-05-04 17:14 52.11639 18.84998 32921 ft 431 kts 325°
2026-05-04 17:15 52.18463 18.78287 32920 ft 431 kts 325°
2026-05-04 17:16 52.28687 18.68108 32923 ft 430 kts 324°
2026-05-04 17:17 52.38902 18.57904 32927 ft 430 kts 324°
2026-05-04 17:18 52.49094 18.47605 32918 ft 430 kts 324°
2026-05-04 17:19 52.59272 18.37250 32925 ft 430 kts 324°
2026-05-04 17:20 52.69419 18.26939 32923 ft 430 kts 323°
2026-05-04 17:20 52.77040 18.19126 32923 ft 430 kts 323°
2026-05-04 17:21 52.87186 18.08679 32931 ft 429 kts 323°
2026-05-04 17:22 52.92270 18.03439 32913 ft 429 kts 323°
2026-05-04 17:23 53.02422 17.92977 32906 ft 430 kts 323°
2026-05-04 17:24 53.10008 17.85101 32906 ft 430 kts 322°
2026-05-04 17:25 53.20146 17.74485 32933 ft 430 kts 322°
2026-05-04 17:26 53.30231 17.63863 32928 ft 429 kts 322°
2026-05-04 17:27 53.42860 17.50483 32926 ft 429 kts 322°
2026-05-04 17:28 53.52937 17.39737 32934 ft 428 kts 321°
2026-05-04 17:29 53.67949 17.23608 32942 ft 427 kts 321°
2026-05-04 17:31 53.80427 17.10100 32970 ft 424 kts 320°
2026-05-04 17:32 53.92803 16.96604 32970 ft 422 kts 320°
2026-05-04 17:33 54.02648 16.85801 32959 ft 422 kts 320°
2026-05-04 17:34 54.12503 16.74922 32970 ft 422 kts 319°
2026-05-04 17:35 54.24808 16.61254 33004 ft 423 kts 319°
2026-05-04 17:35 54.27269 16.58507 33249 ft 423 kts 319°
2026-05-04 17:36 54.29735 16.55753 33552 ft 422 kts 319°
2026-05-04 17:36 54.32189 16.53006 33831 ft 421 kts 319°
2026-05-04 17:36 54.34640 16.50255 33977 ft 422 kts 319°
2026-05-04 17:37 54.39550 16.44744 33976 ft 421 kts 319°
2026-05-04 17:37 54.44459 16.39208 33968 ft 422 kts 319°
2026-05-04 17:38 54.49369 16.33667 33959 ft 422 kts 319°
2026-05-04 17:38 54.54274 16.28113 33961 ft 422 kts 318°
2026-05-04 17:39 54.61658 16.19703 33946 ft 424 kts 318°
2026-05-04 17:39 54.66553 16.14126 33947 ft 424 kts 318°
2026-05-04 17:40 54.71477 16.08493 33967 ft 425 kts 318°
2026-05-04 17:40 54.76406 16.02836 33947 ft 425 kts 318°
2026-05-04 17:41 54.81331 15.97163 33937 ft 425 kts 318°
2026-05-04 17:41 54.86253 15.91481 33931 ft 425 kts 318°
2026-05-04 17:42 54.91180 15.85773 33928 ft 425 kts 318°
2026-05-04 17:42 54.96100 15.80053 33926 ft 425 kts 318°
2026-05-04 17:43 55.01009 15.74329 33920 ft 425 kts 318°
2026-05-04 17:43 55.05885 15.68608 33918 ft 425 kts 318°
2026-05-04 17:44 55.10796 15.62865 33914 ft 425 kts 318°
2026-05-04 17:44 55.15697 15.57085 33912 ft 425 kts 318°
2026-05-04 17:45 55.20600 15.51264 33922 ft 426 kts 318°
2026-05-04 17:45 55.25528 15.45468 33913 ft 427 kts 318°
2026-05-04 17:46 55.30456 15.39655 33913 ft 426 kts 318°
2026-05-04 17:46 55.35368 15.33811 33923 ft 427 kts 319°
2026-05-04 17:47 55.40286 15.27945 33912 ft 427 kts 319°
2026-05-04 17:47 55.45166 15.22095 33910 ft 427 kts 319°
2026-05-04 17:48 55.50081 15.16198 33914 ft 427 kts 319°
2026-05-04 17:48 55.55010 15.10260 33905 ft 429 kts 319°
2026-05-04 17:49 55.59932 15.04310 33900 ft 429 kts 319°
2026-05-04 17:49 55.64851 14.98341 33899 ft 429 kts 319°
2026-05-04 17:50 55.69767 14.92366 33909 ft 429 kts 320°
2026-05-04 17:50 55.74688 14.86370 33899 ft 429 kts 320°
2026-05-04 17:51 55.79598 14.80360 33900 ft 429 kts 320°
2026-05-04 17:51 55.84472 14.74373 33902 ft 429 kts 320°
2026-05-04 17:52 55.89387 14.68320 33894 ft 429 kts 320°
2026-05-04 17:52 55.94300 14.62260 33896 ft 429 kts 320°
2026-05-04 17:53 55.99205 14.56176 33916 ft 429 kts 321°
2026-05-04 17:53 56.04107 14.50087 33902 ft 429 kts 321°
2026-05-04 17:54 56.08967 14.44026 33902 ft 428 kts 321°
2026-05-04 17:54 56.13858 14.37901 33904 ft 428 kts 321°
2026-05-04 17:55 56.18744 14.31769 33896 ft 429 kts 321°
2026-05-04 17:55 56.23636 14.25619 33894 ft 429 kts 321°
2026-05-04 17:56 56.28519 14.19458 33891 ft 429 kts 321°
2026-05-04 17:56 56.33400 14.13262 33901 ft 429 kts 321°
2026-05-04 17:57 56.38277 14.07074 33893 ft 429 kts 321°
2026-05-04 17:57 56.43146 14.00867 33891 ft 429 kts 321°
2026-05-04 17:58 56.48019 13.94636 33903 ft 428 kts 321°
2026-05-04 17:58 56.52855 13.88431 33886 ft 428 kts 321°
2026-05-04 17:59 56.57718 13.82169 33893 ft 428 kts 321°
2026-05-04 18:00 56.64998 13.72766 33897 ft 427 kts 320°
2026-05-04 18:00 56.69828 13.66497 33891 ft 426 kts 320°
2026-05-04 18:01 56.74641 13.60186 33891 ft 426 kts 320°
2026-05-04 18:01 56.79456 13.53854 33889 ft 426 kts 320°
2026-05-04 18:02 56.86688 13.44359 33890 ft 426 kts 320°
2026-05-04 18:02 56.91475 13.38059 33886 ft 426 kts 320°
2026-05-04 18:03 56.96289 13.31710 33903 ft 425 kts 319°
2026-05-04 18:03 57.01079 13.25359 33877 ft 424 kts 319°
2026-05-04 18:04 57.05870 13.19015 33886 ft 424 kts 319°
2026-05-04 18:05 57.13051 13.09495 33880 ft 425 kts 319°
2026-05-04 18:05 57.17028 13.04167 33882 ft 425 kts 319°
2026-05-04 18:06 57.24205 12.94514 33873 ft 425 kts 319°
2026-05-04 18:06 57.28980 12.88065 33898 ft 424 kts 318°
2026-05-04 18:07 57.33730 12.81631 33879 ft 423 kts 318°
2026-05-04 18:07 57.38476 12.75181 33881 ft 423 kts 318°
2026-05-04 18:08 57.43185 12.68755 33872 ft 423 kts 318°
2026-05-04 18:08 57.47907 12.62241 33870 ft 422 kts 318°
2026-05-04 18:09 57.57349 12.49213 33869 ft 422 kts 318°
2026-05-04 18:10 57.62065 12.42715 33881 ft 419 kts 318°
2026-05-04 18:10 57.66747 12.36235 33849 ft 419 kts 318°
2026-05-04 18:11 57.71391 12.29767 33849 ft 419 kts 318°
2026-05-04 18:11 57.76072 12.23266 33854 ft 419 kts 318°
2026-05-04 18:12 57.81215 12.18011 33870 ft 431 kts 335°
2026-05-04 18:12 57.86932 12.14613 33866 ft 430 kts 336°
2026-05-04 18:13 57.92637 12.11205 33889 ft 430 kts 335°
2026-05-04 18:14 58.01147 12.05944 33863 ft 429 kts 334°
2026-05-04 18:14 58.06812 12.02445 33846 ft 428 kts 335°
2026-05-04 18:15 58.18153 11.95439 33824 ft 428 kts 335°
2026-05-04 18:16 58.23783 11.91945 33819 ft 428 kts 334°
2026-05-04 18:16 58.29439 11.88407 33813 ft 428 kts 334°
2026-05-04 18:17 58.37955 11.83114 33803 ft 428 kts 335°
2026-05-04 18:18 58.46437 11.77767 33809 ft 428 kts 334°
2026-05-04 18:18 58.52106 11.74222 33815 ft 429 kts 334°
2026-05-04 18:19 58.60581 11.68897 33478 ft 427 kts 334°
2026-05-04 18:19 58.63406 11.67097 33150 ft 429 kts 334°
2026-05-04 18:19 58.66248 11.65287 32873 ft 430 kts 334°
2026-05-04 18:20 58.69094 11.63471 32607 ft 431 kts 334°
2026-05-04 18:20 58.71940 11.61651 32345 ft 431 kts 334°
2026-05-04 18:20 58.74801 11.59818 32068 ft 432 kts 334°
2026-05-04 18:20 58.77650 11.57991 31816 ft 432 kts 334°
2026-05-04 18:21 58.80505 11.56158 31593 ft 433 kts 334°
2026-05-04 18:21 58.83372 11.54313 31333 ft 433 kts 334°
2026-05-04 18:21 58.86195 11.52492 31040 ft 434 kts 334°
2026-05-04 18:21 58.89046 11.50650 30419 ft 431 kts 334°
2026-05-04 18:22 58.91888 11.48810 29654 ft 431 kts 334°
2026-05-04 18:22 58.94740 11.46960 28788 ft 432 kts 333°
2026-05-04 18:22 58.97590 11.45110 28041 ft 431 kts 333°
2026-05-04 18:22 59.00435 11.43261 27441 ft 434 kts 333°
2026-05-04 18:23 59.03303 11.41389 26896 ft 432 kts 333°
2026-05-04 18:23 59.06134 11.39543 26322 ft 427 kts 333°
2026-05-04 18:23 59.08937 11.37714 25763 ft 422 kts 333°
2026-05-04 18:23 59.11706 11.35902 25258 ft 417 kts 333°
2026-05-04 18:24 59.14446 11.34103 24714 ft 416 kts 332°
2026-05-04 18:24 59.17231 11.32454 24155 ft 424 kts 339°
2026-05-04 18:24 59.20214 11.32152 23698 ft 436 kts 356°
2026-05-04 18:24 59.23212 11.33510 23053 ft 449 kts 11°
2026-05-04 18:25 59.26112 11.35761 22327 ft 448 kts 13°
2026-05-04 18:25 59.29029 11.37981 21867 ft 459 kts 11°
2026-05-04 18:25 59.32026 11.40064 21490 ft 455 kts 10°
2026-05-04 18:25 59.35023 11.42027 21116 ft 452 kts
2026-05-04 18:26 59.38002 11.43925 20612 ft 448 kts
2026-05-04 18:26 59.40958 11.45797 19965 ft 444 kts
2026-05-04 18:26 59.43802 11.47598 19480 ft 435 kts
2026-05-04 18:26 59.46636 11.49392 19182 ft 420 kts
2026-05-04 18:27 59.49370 11.51125 18954 ft 405 kts
2026-05-04 18:27 59.52005 11.52792 18588 ft 391 kts
2026-05-04 18:27 59.54556 11.54406 18169 ft 380 kts
2026-05-04 18:27 59.57034 11.55977 17650 ft 371 kts
2026-05-04 18:28 59.59605 11.56934 17126 ft 378 kts 350°
2026-05-04 18:28 59.62258 11.56581 16656 ft 391 kts 344°
2026-05-04 18:28 59.64947 11.55964 16170 ft 379 kts 344°
2026-05-04 18:28 59.67477 11.55409 15735 ft 362 kts 344°
2026-05-04 18:29 59.69895 11.54899 15252 ft 348 kts 344°
2026-05-04 18:29 59.72278 11.54411 14762 ft 336 kts 345°
2026-05-04 18:29 59.74568 11.53949 14273 ft 324 kts 345°
2026-05-04 18:29 59.76780 11.53503 13809 ft 314 kts 345°
2026-05-04 18:30 59.81087 11.52628 12865 ft 309 kts 346°
2026-05-04 18:30 59.83222 11.52197 12358 ft 308 kts 346°
2026-05-04 18:30 59.85339 11.51776 11948 ft 303 kts 346°
2026-05-04 18:31 59.87429 11.51361 11519 ft 299 kts 346°
2026-05-04 18:31 59.89484 11.50952 11170 ft 294 kts 346°
2026-05-04 18:31 59.91498 11.50554 10850 ft 288 kts 346°
2026-05-04 18:31 59.93476 11.50159 10554 ft 284 kts 346°
2026-05-04 18:32 59.95440 11.49762 10252 ft 283 kts 347°
2026-05-04 18:32 59.97405 11.49366 10001 ft 285 kts 347°
2026-05-04 18:32 59.99384 11.48964 9712 ft 287 kts 347°
2026-05-04 18:32 60.01367 11.48566 9402 ft 286 kts 347°
2026-05-04 18:33 60.03344 11.48170 9079 ft 284 kts 347°
2026-05-04 18:33 60.05305 11.47777 8782 ft 283 kts 347°
2026-05-04 18:33 60.07265 11.47383 8479 ft 282 kts 347°
2026-05-04 18:33 60.09217 11.46989 8216 ft 281 kts 347°
2026-05-04 18:34 60.11127 11.46605 7957 ft 279 kts 347°
2026-05-04 18:34 60.13059 11.46214 7708 ft 278 kts 347°
2026-05-04 18:34 60.14971 11.45827 7467 ft 276 kts 347°
2026-05-04 18:34 60.16877 11.45441 7244 ft 275 kts 347°
2026-05-04 18:35 60.18784 11.45055 7024 ft 275 kts 347°
2026-05-04 18:35 60.20684 11.44669 6816 ft 274 kts 348°
2026-05-04 18:35 60.22583 11.44283 6608 ft 274 kts 348°
2026-05-04 18:35 60.24476 11.43899 6392 ft 273 kts 348°
2026-05-04 18:36 60.26342 11.43519 6214 ft 269 kts 348°
2026-05-04 18:36 60.28206 11.43141 5995 ft 269 kts 348°
2026-05-04 18:36 60.30068 11.42762 5776 ft 269 kts 348°
2026-05-04 18:36 60.31929 11.42383 5567 ft 267 kts 348°
2026-05-04 18:37 60.33771 11.42009 5359 ft 263 kts 349°
2026-05-04 18:37 60.35572 11.41673 5139 ft 256 kts 349°
2026-05-04 18:37 60.37312 11.41344 4983 ft 245 kts 349°
2026-05-04 18:37 60.38965 11.41005 4958 ft 234 kts 345°
2026-05-04 18:38 60.40452 11.39946 4973 ft 222 kts 319°
2026-05-04 18:38 60.41439 11.37657 5006 ft 214 kts 292°
2026-05-04 18:38 60.41768 11.34777 5008 ft 212 kts 268°
2026-05-04 18:38 60.41569 11.31823 5020 ft 212 kts 260°
2026-05-04 18:39 60.41296 11.28891 5026 ft 212 kts 260°
2026-05-04 18:39 60.41041 11.25947 5021 ft 212 kts 261°
2026-05-04 18:39 60.40778 11.23020 5015 ft 212 kts 256°
2026-05-04 18:39 60.40093 11.20442 4996 ft 216 kts 227°
2026-05-04 18:40 60.38797 11.18831 4976 ft 220 kts 207°
2026-05-04 18:40 60.37330 11.17904 4610 ft 225 kts 200°
2026-05-04 18:40 60.35784 11.17164 4284 ft 228 kts 199°
2026-05-04 18:40 60.34160 11.16379 3365 ft 252 kts 199°
2026-05-04 18:41 60.32456 11.15436 2921 ft 255 kts 200°
2026-05-04 18:41 60.30757 11.14459 2585 ft 252 kts 200°
2026-05-04 18:41 60.29086 11.13492 2257 ft 247 kts 200°
2026-05-04 18:41 60.27494 11.12572 2010 ft 227 kts 201°
2026-05-04 18:42 60.26055 11.11737 1702 ft 205 kts 202°
2026-05-04 18:42 60.24735 11.10970 1378 ft 190 kts 201°
2026-05-04 18:42 60.23541 11.10279 1150 ft 166 kts 200°
2026-05-04 18:42 60.22521 11.09689 897 ft 145 kts 199°
2026-05-04 18:43 60.21566 11.09153 750 ft 141 kts 199°
2026-05-04 18:43 60.20577 11.08588 1038 ft 158 kts 201°
2026-05-04 18:43 60.19461 11.07924 1856 ft 175 kts 203°
2026-05-04 18:43 60.18216 11.07515 2784 ft 196 kts 183°
2026-05-04 18:44 60.16996 11.08413 3547 ft 219 kts 152°
2026-05-04 18:44 60.16599 11.09035 3755 ft 228 kts 142°
2026-05-04 18:44 60.15413 11.14214 4730 ft 264 kts 99°
2026-05-04 18:44 60.15242 11.17847 4976 ft 265 kts 95°
2026-05-04 18:45 60.15105 11.21581 5015 ft 264 kts 95°
2026-05-04 18:45 60.14972 11.25255 5024 ft 264 kts 95°
2026-05-04 18:45 60.14835 11.28948 5008 ft 265 kts 95°
2026-05-04 18:45 60.14696 11.32636 5005 ft 265 kts 95°
2026-05-04 18:46 60.14559 11.36280 5004 ft 265 kts 93°
2026-05-04 18:46 60.14838 11.39874 4993 ft 262 kts 64°
2026-05-04 18:46 60.15874 11.42832 4992 ft 258 kts 35°
2026-05-04 18:46 60.17386 11.44631 5003 ft 251 kts 17°
2026-05-04 18:47 60.19001 11.45966 5004 ft 251 kts 15°
2026-05-04 18:47 60.20628 11.47257 5003 ft 250 kts 15°
2026-05-04 18:47 60.22240 11.48540 5001 ft 248 kts 14°
2026-05-04 18:47 60.23887 11.49087 4990 ft 236 kts 350°
2026-05-04 18:48 60.25535 11.49024 5014 ft 238 kts 354°
2026-05-04 18:48 60.27201 11.49119 4799 ft 239 kts 355°
2026-05-04 18:48 60.28862 11.49231 4482 ft 239 kts 355°
2026-05-04 18:48 60.30524 11.49337 4129 ft 239 kts 355°
2026-05-04 18:49 60.32172 11.49430 3982 ft 235 kts 355°
2026-05-04 18:49 60.33798 11.49548 3951 ft 233 kts 355°
2026-05-04 18:49 60.35436 11.49674 3972 ft 237 kts 355°
2026-05-04 18:49 60.37084 11.49810 3968 ft 236 kts 355°
2026-05-04 18:50 60.38728 11.49909 3995 ft 235 kts 355°
2026-05-04 18:50 60.40351 11.49966 4009 ft 233 kts 355°
2026-05-04 18:50 60.41951 11.50017 4010 ft 233 kts 355°
2026-05-04 18:50 60.43532 11.49693 3995 ft 225 kts 334°
2026-05-04 18:51 60.44779 11.47971 3987 ft 215 kts 304°
2026-05-04 18:51 60.45441 11.45315 4000 ft 212 kts 287°
2026-05-04 18:51 60.45880 11.42468 4003 ft 211 kts 285°
2026-05-04 18:51 60.46303 11.39614 4000 ft 211 kts 285°
2026-05-04 18:52 60.46625 11.36732 3987 ft 211 kts 269°
2026-05-04 18:52 60.46243 11.33890 3996 ft 213 kts 242°
2026-05-04 18:52 60.45275 11.31599 3993 ft 219 kts 219°
2026-05-04 18:52 60.44021 11.29839 4004 ft 217 kts 229°
2026-05-04 18:53 60.43026 11.27546 3997 ft 217 kts 234°
2026-05-04 18:53 60.42374 11.25963 3990 ft 218 kts 228°
2026-05-04 18:53 60.41197 11.23995 4003 ft 219 kts 224°
2026-05-04 18:53 60.40354 11.21545 4293 ft 213 kts 243°
2026-05-04 18:54 60.39542 11.19036 4113 ft 215 kts 235°
2026-05-04 18:54 60.38474 11.16865 4044 ft 222 kts 223°
2026-05-04 18:54 60.37213 11.15108 4048 ft 225 kts 204°
2026-05-04 18:54 60.35758 11.14907 3560 ft 247 kts 170°
2026-05-04 18:55 60.34079 11.15932 3238 ft 246 kts 171°
2026-05-04 18:55 60.30738 11.17109 2395 ft 253 kts 174°
2026-05-04 18:55 60.29035 11.17502 2143 ft 240 kts 187°
2026-05-04 18:56 60.27462 11.16932 1779 ft 220 kts 202°
2026-05-04 18:56 60.26017 11.15999 1632 ft 215 kts 204°
2026-05-04 18:56 60.24621 11.14990 1541 ft 212 kts 205°
2026-05-04 18:56 60.23265 11.13879 1617 ft 215 kts 204°